Weather reports worldwide

Advertisment
Bilbao/Aeropuerto, Spain (8025): temperature & dewpoint: 12.01.2018 07:00:00 - 18.01.2018 07:00:00 (CET)Bilbao/Aeropuerto, Spain (8025): wind speed: 12.01.2018 07:00:00 - 18.01.2018 07:00:00 (CET)Bilbao/Aeropuerto, Spain (8025): wind direction: 12.01.2018 07:00:00 - 18.01.2018 07:00:00 (CET)Bilbao/Aeropuerto, Spain (8025): reduced air pressure: 12.01.2018 07:00:00 - 18.01.2018 07:00:00 (CET)Bilbao/Aeropuerto, Spain (8025): visibility: 12.01.2018 07:00:00 - 18.01.2018 07:00:00 (CET)
Date & Time tt [°C] td [°C] ff [km/h] ff [kn] dd ppp [hPa] vv [km]
18.01.2018 07:00:00 - - - - - - -
18.01.2018 06:00:00 3,4 3,0 9 5 E 1025,6 -
18.01.2018 05:00:00 3,5 2,9 5 3 ESE 1026,2 -
18.01.2018 04:00:00 4,0 3,7 5 3 E 1026,7 -
18.01.2018 03:00:00 4,6 4,3 4 2 E 1027,4 -
18.01.2018 02:00:00 4,8 4,4 9 5 E 1028,0 -
18.01.2018 01:00:00 5,0 4,4 8 4 E 1028,5 -
18.01.2018 00:00:00 6,0 5,4 4 2 ESE 1028,5 -
17.01.2018 23:00:00 7,0 6,3 8 4 E 1028,8 -
17.01.2018 22:00:00 8,0 7,4 8 4 E 1029,1 15
17.01.2018 21:00:00 8,7 7,9 8 4 E 1029,3 -
17.01.2018 20:00:00 9,0 7,9 2 1 ESE 1029,2 -
17.01.2018 19:00:00 9,5 8,3 8 4 E 1029,1 15
17.01.2018 18:00:00 9,6 8,2 2 1 S 1029,0 -
17.01.2018 17:00:00 9,6 8,2 11 6 WNW 1029,1 -
17.01.2018 16:00:00 10,6 7,6 34 18 WNW 1028,9 9
17.01.2018 15:00:00 10,8 8,4 21 11 WNW 1028,9 -
17.01.2018 14:00:00 11,5 8,1 11 6 W 1029,4 -
17.01.2018 13:00:00 10,2 8,1 16 9 NW 1030,0 7
17.01.2018 12:00:00 10,9 8,4 11 6 NNW 1030,0 -
17.01.2018 11:00:00 11,0 7,4 9 5 WSW 1029,7 -
17.01.2018 10:00:00 9,9 7,7 18 10 WNW 1029,3 10
17.01.2018 09:00:00 10,1 7,3 22 12 WNW 1028,3 -
17.01.2018 08:00:00 10,8 7,3 37 20 NW 1027,4 -
17.01.2018 07:00:00 11,1 6,9 13 7 W 1026,9 15
17.01.2018 06:00:00 10,3 7,5 39 21 WNW 1026,9 -
17.01.2018 05:00:00 11,7 8,0 34 18 WNW 1026,1 -
17.01.2018 04:00:00 11,8 8,4 26 14 WNW 1025,7 -
17.01.2018 03:00:00 12,3 10,0 29 16 NW 1025,3 -
17.01.2018 02:00:00 13,0 9,4 34 18 WNW 1024,5 -
17.01.2018 01:00:00 12,6 10,2 29 16 WNW 1024,3 -
17.01.2018 00:00:00 14,1 10,7 22 12 WNW 1023,5 -
16.01.2018 23:00:00 13,8 11,5 21 11 NW 1023,3 -
16.01.2018 22:00:00 14,0 9,6 4 2 NW 1022,6 15
16.01.2018 21:00:00 15,1 8,6 11 6 WSW 1022,6 -
16.01.2018 20:00:00 15,1 8,1 8 4 W 1022,6 -
16.01.2018 19:00:00 14,8 10,2 8 4 W 1022,5 15
16.01.2018 18:00:00 14,7 10,2 13 7 WNW 1022,3 -
16.01.2018 17:00:00 15,5 10,0 16 9 WNW 1022,3 -
16.01.2018 16:00:00 15,9 9,5 15 8 WNW 1022,5 30
16.01.2018 15:00:00 15,6 10,3 16 9 NW 1023,0 -
16.01.2018 14:00:00 15,7 7,4 4 2 NNE 1023,7 -
16.01.2018 13:00:00 14,2 6,9 5 3 SE 1024,4 30
16.01.2018 12:00:00 13,4 6,1 8 4 S 1025,3 -
16.01.2018 11:00:00 13,1 6,2 15 8 SW 1025,2 -
16.01.2018 10:00:00 12,8 5,9 16 9 SW 1025,0 20
16.01.2018 09:00:00 12,8 5,9 15 8 SW 1024,5 -
16.01.2018 08:00:00 12,7 5,8 22 12 SW 1023,8 -
16.01.2018 07:00:00 12,8 5,7 16 9 SW 1023,2 15
16.01.2018 06:00:00 12,7 5,4 24 13 SW 1022,7 -
16.01.2018 05:00:00 12,7 5,1 18 10 SW 1022,4 -
16.01.2018 04:00:00 13,0 5,0 22 12 SW 1022,5 -
16.01.2018 03:00:00 12,8 4,7 21 11 SW 1022,3 -
16.01.2018 02:00:00 12,6 4,2 26 14 SW 1022,7 -
16.01.2018 01:00:00 12,6 3,8 24 13 SW 1022,7 -
16.01.2018 00:00:00 12,3 3,2 24 13 SW 1023,1 -
15.01.2018 23:00:00 11,9 3,5 16 9 SSW 1022,9 -
15.01.2018 22:00:00 10,5 4,6 26 14 SW 1023,2 30
15.01.2018 21:00:00 11,3 3,3 18 10 SW 1022,9 -
15.01.2018 20:00:00 11,3 2,8 22 12 SW 1022,5 -
15.01.2018 19:00:00 11,4 1,3 22 12 SW 1022,5 -
15.01.2018 18:00:00 11,5 1,1 21 11 SW 1022,0 -
15.01.2018 17:00:00 11,8 0,9 16 9 SW 1021,9 -
15.01.2018 16:00:00 12,0 2,0 22 12 SW 1021,8 30
15.01.2018 15:00:00 12,3 2,0 8 4 WSW 1022,4 -
15.01.2018 14:00:00 12,5 3,6 4 2 W 1022,7 -
15.01.2018 13:00:00 11,5 3,3 8 4 WSW 1023,6 25
15.01.2018 12:00:00 10,1 5,6 5 3 WNW 1024,6 -
15.01.2018 11:00:00 9,3 7,0 0 0 N 1025,5 -
15.01.2018 10:00:00 7,7 7,3 4 2 ESE 1025,4 25
15.01.2018 09:00:00 5,7 5,7 0 0 N 1025,0 -
15.01.2018 08:00:00 5,9 5,9 2 1 ESE 1024,6 -
15.01.2018 07:00:00 6,4 6,4 4 2 ESE 1024,3 12
15.01.2018 06:00:00 6,7 6,7 8 4 ESE 1024,0 -
15.01.2018 05:00:00 6,7 6,7 4 2 E 1024,3 -
15.01.2018 04:00:00 7,0 6,9 4 2 ENE 1024,3 -
15.01.2018 03:00:00 7,2 7,1 0 0 N 1024,2 -
15.01.2018 02:00:00 7,3 7,2 4 2 E 1024,2 -
15.01.2018 01:00:00 7,3 7,2 5 3 ESE 1024,3 -
15.01.2018 00:00:00 7,3 7,0 4 2 E 1024,2 -
14.01.2018 23:00:00 7,3 7,0 0 0 N 1023,6 -
14.01.2018 22:00:00 7,6 7,2 0 0 N 1023,2 10
14.01.2018 21:00:00 7,9 6,9 9 5 N 1022,8 -
14.01.2018 20:00:00 8,4 6,9 8 4 W 1021,6 -
14.01.2018 19:00:00 8,6 6,6 0 0 N 1020,7 15
14.01.2018 18:00:00 8,7 6,5 8 4 W 1020,1 -
14.01.2018 17:00:00 8,2 7,6 0 0 N 1019,5 -
14.01.2018 16:00:00 8,2 6,3 18 10 NW 1019,1 8
14.01.2018 15:00:00 9,8 6,1 9 5 W 1018,7 -
14.01.2018 14:00:00 9,2 7,4 4 2 W 1018,6 -
14.01.2018 13:00:00 8,1 7,5 4 2 SSW 1018,7 20
14.01.2018 12:00:00 7,4 7,1 2 1 N 1019,6 -
14.01.2018 11:00:00 6,8 6,7 4 2 ESE 1019,3 -
14.01.2018 10:00:00 6,8 6,4 4 2 E 1018,7 15
14.01.2018 09:00:00 7,1 5,7 0 0 N 1017,7 -
14.01.2018 08:00:00 7,1 6,5 4 2 E 1017,2 -
14.01.2018 07:00:00 7,5 6,9 0 0 N 1016,8 15
14.01.2018 06:00:00 6,6 6,3 2 1 E 1016,9 -
14.01.2018 05:00:00 6,6 6,2 4 2 E 1016,5 -
14.01.2018 04:00:00 6,4 6,1 9 5 SE 1016,5 -
14.01.2018 03:00:00 6,4 5,8 4 2 E 1016,5 -
14.01.2018 02:00:00 6,3 5,7 8 4 E 1016,4 -
14.01.2018 01:00:00 6,1 5,5 4 2 NE 1017,1 -
14.01.2018 00:00:00 5,9 5,3 5 3 ESE 1017,2 -
13.01.2018 23:00:00 6,0 4,9 11 6 ENE 1017,1 -
13.01.2018 22:00:00 6,1 4,9 4 2 ESE 1016,6 7
13.01.2018 21:00:00 6,3 4,9 4 2 SE 1016,6 -
13.01.2018 20:00:00 6,6 4,9 2 1 SSE 1016,4 -
13.01.2018 19:00:00 7,2 5,8 2 1 SSW 1016,3 7
13.01.2018 18:00:00 7,3 5,4 4 2 NW 1015,8 -
13.01.2018 17:00:00 8,6 4,4 8 4 WSW 1015,2 -
13.01.2018 16:00:00 8,8 5,0 4 2 SW 1014,8 9
13.01.2018 15:00:00 9,0 4,8 0 0 N 1015,0 -
13.01.2018 14:00:00 10,1 2,7 9 5 SSW 1015,5 -
13.01.2018 13:00:00 10,7 1,6 18 10 S 1015,6 25
13.01.2018 12:00:00 10,7 1,3 24 13 S 1015,8 -
13.01.2018 11:00:00 10,4 1,2 22 12 S 1015,5 -
13.01.2018 10:00:00 10,7 1,0 8 4 SSW 1015,4 25
13.01.2018 09:00:00 10,6 0,7 9 5 S 1014,9 -
13.01.2018 08:00:00 10,7 0,7 29 16 SSW 1014,7 -
13.01.2018 07:00:00 10,8 0,6 24 13 SSW 1014,7 20
13.01.2018 06:00:00 11,1 0,8 31 17 S 1014,8 -
13.01.2018 05:00:00 11,5 0,2 29 16 S 1015,2 -
13.01.2018 04:00:00 11,3 -0,5 18 10 S 1016,1 -
13.01.2018 03:00:00 10,4 0,0 18 10 S 1016,4 -
13.01.2018 02:00:00 8,1 1,7 21 11 SE 1017,3 -
13.01.2018 01:00:00 7,3 2,6 16 9 ESE 1018,7 -
13.01.2018 00:00:00 8,3 2,4 9 5 SE 1020,0 -
12.01.2018 23:00:00 8,2 3,3 0 0 N 1020,6 -
12.01.2018 22:00:00 8,3 4,5 4 2 S 1021,3 15
12.01.2018 21:00:00 8,6 5,7 15 8 ESE 1021,5 -
12.01.2018 20:00:00 8,5 7,0 13 7 ESE 1021,9 -
12.01.2018 19:00:00 9,2 7,3 11 6 ESE 1022,3 15
12.01.2018 18:00:00 9,6 7,2 9 5 SE 1022,4 -
12.01.2018 17:00:00 11,0 8,0 9 5 ESE 1022,6 -
12.01.2018 16:00:00 11,7 7,4 13 7 ESE 1023,0 20
12.01.2018 15:00:00 12,2 8,7 11 6 ESE 1023,6 -
12.01.2018 14:00:00 11,7 8,7 9 5 ESE 1024,5 -
12.01.2018 13:00:00 11,3 10,5 5 3 ESE 1025,7 20
12.01.2018 12:00:00 9,4 9,4 5 3 ESE 1026,6 -
12.01.2018 11:00:00 8,0 8,0 4 2 ESE 1026,6 -
12.01.2018 10:00:00 7,6 7,6 8 4 ESE 1026,3 12
12.01.2018 09:00:00 7,3 7,3 8 4 ESE 1026,2 -
12.01.2018 08:00:00 7,0 7,0 5 3 SSE 1026,1 -
12.01.2018 07:00:00 6,3 6,3 8 4 E 1025,7 6

tt = temperature
td = dewpoint
ff = wind speed
dd = wind direction
ppp = reduced air pressure
vv = visibility

Next stations